| time (UTC) | temp F | wind direction | speed MPH | gust MPH | rain 1hr in | rain 24hr in | rain mn in | humidity % | barometer mb |
| 20260506194019 | 51 | 0.0 | 0.0 | 0.00 | 0.48 | 0.35 | 85 | 1010.8 | |
| 20260506193019 | 51 | 0.0 | 0.0 | 0.00 | 0.49 | 0.35 | 84 | 1010.7 | |
| 20260506192042 | 51 | 0.0 | 0.0 | 0.00 | 0.50 | 0.35 | 82 | 1010.6 | |
| 20260506191023 | 51 | 0.0 | 0.0 | 0.00 | 0.51 | 0.35 | 81 | 1010.6 | |
| 20260506190024 | 52 | 0.0 | 0.0 | 0.00 | 0.52 | 0.35 | 81 | 1010.4 | |
| 20260506185024 | 52 | 0.0 | 0.0 | 0.00 | 0.53 | 0.35 | 79 | 1010.4 | |
| 20260506184100 | 53 | 0.0 | 0.0 | 0.00 | 0.54 | 0.35 | 78 | 1010.3 | |
| 20260506183017 | 53 | 0.0 | 0.0 | 0.00 | 0.54 | 0.35 | 77 | 1010.2 | |
| 20260506182040 | 54 | 0.0 | 0.0 | 0.00 | 0.55 | 0.35 | 77 | 1010.1 | |
| 20260506181022 | 54 | 0.0 | 0.0 | 0.00 | 0.55 | 0.35 | 76 | 1009.9 | |
| 20260506180055 | 54 | 0.0 | 0.0 | 0.00 | 0.56 | 0.35 | 78 | 1009.8 | |
| 20260506175020 | 54 | 0.0 | 0.0 | 0.00 | 0.57 | 0.35 | 78 | 1009.7 | |
| 20260506174023 | 54 | 0.0 | 0.0 | 0.00 | 0.57 | 0.35 | 79 | 1009.5 | |
| 20260506173022 | 54 | 0.0 | 0.0 | 0.00 | 0.57 | 0.35 | 80 | 1009.4 | |
| 20260506172046 | 54 | 0.0 | 0.0 | 0.00 | 0.57 | 0.35 | 79 | 1009.3 | |
| 20260506171055 | 54 | 0.0 | 0.0 | 0.00 | 0.57 | 0.35 | 79 | 1009.2 | |
| 20260506170019 | 54 | 0.0 | 0.0 | 0.00 | 0.57 | 0.35 | 78 | 1009.2 | |
| 20260506165026 | 55 | 0.0 | 0.0 | 0.00 | 0.57 | 0.35 | 78 | 1009.1 | |
| 20260506164043 | 55 | 0.0 | 0.0 | 0.00 | 0.57 | 0.35 | 78 | 1009.0 | |
| 20260506163023 | 55 | 0.0 | 0.0 | 0.00 | 0.57 | 0.35 | 76 | 1009.0 | |
| 20260506162024 | 56 | 0.0 | 0.0 | 0.00 | 0.57 | 0.35 | 75 | 1009.1 | |
| 20260506161020 | 56 | 0.0 | 0.0 | 0.00 | 0.57 | 0.35 | 76 | 1009.1 | |
| 20260506160018 | 57 | 0.0 | 0.0 | 0.00 | 0.57 | 0.35 | 74 | 1009.1 | |
| 20260506155018 | 57 | 0.0 | 0.0 | 0.00 | 0.57 | 0.35 | 74 | 1008.9 | |
| 20260506154021 | 58 | 0.0 | 0.0 | 0.00 | 0.57 | 0.35 | 75 | 1008.9 | |
| 20260506153017 | 58 | 0.0 | 0.0 | 0.00 | 0.57 | 0.35 | 76 | 1008.9 | |
| 20260506152020 | 58 | 0.0 | 0.0 | 0.00 | 0.57 | 0.35 | 77 | 1008.9 | |
| 20260506151017 | 58 | 0.0 | 0.0 | 0.00 | 0.57 | 0.35 | 81 | 1008.8 | |
| 20260506150025 | 57 | 0.0 | 0.0 | 0.00 | 0.57 | 0.35 | 84 | 1008.7 | |
| 20260506145026 | 56 | 0.0 | 0.0 | 0.00 | 0.57 | 0.35 | 84 | 1008.8 | |
| 20260506144038 | 56 | 0.0 | 0.0 | 0.00 | 0.57 | 0.35 | 86 | 1008.7 | |
| 20260506143018 | 56 | 0.0 | 0.0 | 0.00 | 0.57 | 0.35 | 88 | 1008.8 | |
| 20260506142041 | 56 | 0.0 | 0.0 | 0.00 | 0.57 | 0.35 | 87 | 1008.8 | |
| 20260506141118 | 55 | 0.0 | 0.0 | 0.00 | 0.57 | 0.35 | 85 | 1008.8 | |
| 20260506140021 | 55 | 0.0 | 0.0 | 0.00 | 0.57 | 0.35 | 88 | 1008.8 | |
| 20260506135024 | 54 | 0.0 | 0.0 | 0.00 | 0.57 | 0.35 | 90 | 1008.8 | |
| 20260506134019 | 54 | 0.0 | 0.0 | 0.00 | 0.57 | 0.35 | 90 | 1008.8 | |
| 20260506133022 | 54 | 0.0 | 0.0 | 0.00 | 0.57 | 0.35 | 90 | 1008.8 | |
| 20260506132022 | 54 | 0.0 | 0.0 | 0.00 | 0.57 | 0.35 | 90 | 1008.8 | |
| 20260506131045 | 54 | 0.0 | 0.0 | 0.00 | 0.57 | 0.35 | 92 | 1008.7 | |
| 20260506130019 | 54 | 0.0 | 0.0 | 0.00 | 0.57 | 0.35 | 93 | 1008.7 | |
| 20260506125017 | 53 | 0.0 | 0.0 | 0.00 | 0.57 | 0.35 | 93 | 1008.6 | |
| 20260506124038 | 53 | 0.0 | 0.0 | 0.00 | 0.57 | 0.35 | 92 | 1008.5 | |
| 20260506123026 | 52 | 0.0 | 0.0 | 0.01 | 0.57 | 0.35 | 92 | 1008.5 | |
| 20260506122018 | 52 | 0.0 | 0.0 | 0.01 | 0.57 | 0.35 | 92 | 1008.5 | |
| 20260506121022 | 52 | 0.0 | 0.0 | 0.01 | 0.57 | 0.35 | 92 | 1008.5 | |
| 20260506120022 | 52 | 0.0 | 0.0 | 0.01 | 0.57 | 0.35 | 92 | 1008.5 | |
| 20260506115024 | 52 | 0.0 | 0.0 | 0.01 | 0.57 | 0.35 | 90 | 1008.5 | |
| 20260506114020 | 53 | 0.0 | 0.0 | 0.01 | 0.57 | 0.35 | 88 | 1008.5 | |
| 20260506113019 | 52 | 0.0 | 0.0 | 0.00 | 0.57 | 0.34 | 88 | 1008.5 | |
| 20260506112018 | 52 | 0.0 | 0.0 | 0.00 | 0.57 | 0.34 | 88 | 1008.6 | |
| 20260506111037 | 52 | 0.0 | 0.0 | 0.00 | 0.57 | 0.34 | 88 | 1008.6 | |
| 20260506110027 | 51 | 0.0 | 0.0 | 0.00 | 0.57 | 0.34 | 88 | 1008.6 | |
| 20260506105035 | 51 | 0.0 | 0.0 | 0.00 | 0.57 | 0.34 | 88 | 1008.6 | |
| 20260506104016 | 51 | 0.0 | 0.0 | 0.00 | 0.57 | 0.34 | 88 | 1008.7 | |
| 20260506103017 | 51 | 0.0 | 0.0 | 0.00 | 0.57 | 0.34 | 88 | 1008.7 | |
| 20260506102022 | 51 | 0.0 | 0.0 | 0.00 | 0.57 | 0.34 | 88 | 1008.6 | |
| 20260506101018 | 50 | 0.0 | 0.0 | 0.00 | 0.57 | 0.34 | 88 | 1008.5 | |
| 20260506100038 | 50 | 0.0 | 0.0 | 0.00 | 0.57 | 0.34 | 88 | 1008.4 | |
| 20260506095027 | 50 | 0.0 | 0.0 | 0.01 | 0.57 | 0.34 | 88 | 1008.3 | |
| 20260506094026 | 50 | 0.0 | 0.0 | 0.01 | 0.57 | 0.34 | 88 | 1008.3 | |
| 20260506093107 | 49 | 0.0 | 0.0 | 0.01 | 0.57 | 0.34 | 88 | 1008.2 | |
| 20260506092019 | 49 | 0.0 | 0.0 | 0.01 | 0.57 | 0.34 | 88 | 1008.2 | |
| 20260506091021 | 49 | 0.0 | 0.0 | 0.01 | 0.57 | 0.34 | 88 | 1008.1 | |
| 20260506090026 | 49 | 0.0 | 0.0 | 0.01 | 0.57 | 0.34 | 88 | 1008.0 | |
| 20260506085022 | 49 | 0.0 | 0.0 | 0.00 | 0.57 | 0.33 | 88 | 1007.9 | |
| 20260506084018 | 49 | 0.0 | 0.0 | 0.00 | 0.57 | 0.33 | 88 | 1007.9 | |
| 20260506083021 | 49 | 0.0 | 0.0 | 0.00 | 0.57 | 0.33 | 88 | 1007.8 | |
| 20260506082017 | 49 | 0.0 | 0.0 | 0.01 | 0.58 | 0.33 | 88 | 1007.7 | |
| 20260506081029 | 49 | 0.0 | 0.0 | 0.01 | 0.58 | 0.33 | 88 | 1007.7 | |
| 20260506073018 | 49 | 0.0 | 0.0 | 0.02 | 0.58 | 0.33 | 88 | 1007.4 | |
| 20260506072016 | 49 | 0.0 | 0.0 | 0.02 | 0.57 | 0.32 | 88 | 1007.3 | |
| 20260506071021 | 48 | 0.0 | 0.0 | 0.02 | 0.57 | 0.32 | 88 | 1007.3 | |
| 20260506062019 | 48 | 0.0 | 0.0 | 0.02 | 0.57 | 0.31 | 88 | 1007.1 | |
| 20260506061015 | 48 | 0.0 | 0.0 | 0.03 | 0.57 | 0.31 | 88 | 1007.0 | |
| 20260506051021 | 48 | 0.0 | 0.0 | 0.01 | 0.54 | 0.28 | 88 | 1007.0 | |
| 20260506045034 | 47 | 0.0 | 0.0 | 0.01 | 0.57 | 0.28 | 88 | 1006.9 | |
| 20260506044016 | 47 | 0.0 | 0.0 | 0.01 | 0.57 | 0.28 | 88 | 1006.9 | |
| 20260506043017 | 48 | 0.0 | 0.0 | 0.01 | 0.57 | 0.28 | 88 | 1006.9 | |
| 20260506042020 | 48 | 0.0 | 0.0 | 0.02 | 0.59 | 0.28 | 88 | 1006.9 | |
| 20260506041042 | 48 | 0.0 | 0.0 | 0.01 | 0.58 | 0.27 | 88 | 1006.9 | |
| 20260506040018 | 48 | 0.0 | 0.0 | 0.02 | 0.58 | 0.27 | 88 | 1006.9 | |
| 20260506035019 | 48 | 0.0 | 0.0 | 0.02 | 0.58 | 0.27 | 88 | 1007.0 | |
| 20260506034018 | 48 | 0.0 | 0.0 | 0.02 | 0.58 | 0.27 | 88 | 1007.0 | |
| 20260506033017 | 48 | 0.0 | 0.0 | 0.03 | 0.59 | 0.27 | 88 | 1007.1 | |
| 20260506032016 | 48 | 0.0 | 0.0 | 0.02 | 0.58 | 0.26 | 88 | 1007.1 | |
| 20260506031021 | 48 | 0.0 | 0.0 | 0.03 | 0.59 | 0.26 | 88 | 1007.2 | |
| 20260506030016 | 48 | 0.0 | 0.0 | 0.02 | 0.60 | 0.25 | 88 | 1007.2 | |
| 20260506025020 | 48 | 0.0 | 0.0 | 0.03 | 0.60 | 0.25 | 88 | 1007.3 | |
| 20260506024017 | 48 | 0.0 | 0.0 | 0.02 | 0.59 | 0.24 | 88 | 1007.4 | |
| 20260506023039 | 48 | 0.0 | 0.0 | 0.02 | 0.59 | 0.24 | 88 | 1007.4 | |
| 20260506022025 | 48 | 0.0 | 0.0 | 0.04 | 0.60 | 0.24 | 88 | 1007.4 | |
| 20260506021024 | 48 | 0.0 | 0.0 | 0.04 | 0.60 | 0.23 | 88 | 1007.4 | |
| 20260506020027 | 48 | 0.0 | 0.0 | 0.05 | 0.60 | 0.23 | 88 | 1007.4 | |
| 20260506015044 | 49 | 0.0 | 0.0 | 0.05 | 0.59 | 0.22 | 88 | 1007.5 | |
| 20260506014025 | 49 | 0.0 | 0.0 | 0.05 | 0.59 | 0.22 | 88 | 1007.5 | |
| 20260506013025 | 49 | 0.0 | 0.0 | 0.05 | 0.58 | 0.21 | 88 | 1007.5 | |
| 20260506012021 | 49 | 0.0 | 0.0 | 0.05 | 0.57 | 0.20 | 88 | 1007.5 | |
| 20260506011020 | 49 | 0.0 | 0.0 | 0.05 | 0.56 | 0.19 | 88 | 1007.5 | |
| 20260506010018 | 49 | 0.0 | 0.0 | 0.05 | 0.55 | 0.18 | 88 | 1007.6 | |
| 20260506005021 | 49 | 0.0 | 0.0 | 0.06 | 0.54 | 0.17 | 88 | 1007.6 | |
| 20260506004018 | 49 | 0.0 | 0.0 | 0.06 | 0.54 | 0.17 | 88 | 1007.7 | |
| 20260506003017 | 49 | 0.0 | 0.0 | 0.06 | 0.54 | 0.17 | 88 | 1007.7 | |
| 20260506002017 | 49 | 0.0 | 0.0 | 0.06 | 0.52 | 0.15 | 88 | 1007.8 | |
| 20260506001018 | 49 | 0.0 | 0.0 | 0.06 | 0.51 | 0.14 | 88 | 1007.9 | |
| 20260506000024 | 50 | 0.0 | 0.0 | 0.06 | 0.51 | 0.13 | 88 | 1008.0 | |
| 20260505235021 | 50 | 0.0 | 0.0 | 0.06 | 0.50 | 0.12 | 88 | 1008.1 | |
| 20260505234038 | 50 | 0.0 | 0.0 | 0.06 | 0.49 | 0.11 | 88 | 1008.1 | |
| 20260505233022 | 50 | 0.0 | 0.0 | 0.07 | 0.48 | 0.10 | 88 | 1008.1 | |
| 20260505232046 | 50 | 0.0 | 0.0 | 0.07 | 0.47 | 0.09 | 88 | 1008.2 | |
| 20260505231044 | 50 | 0.0 | 0.0 | 0.08 | 0.46 | 0.09 | 88 | 1008.2 | |
| 20260505230020 | 50 | 0.0 | 0.0 | 0.06 | 0.45 | 0.07 | 88 | 1008.3 | |
| 20260505225038 | 50 | 0.0 | 0.0 | 0.06 | 0.44 | 0.06 | 88 | 1008.3 | |
| 20260505224023 | 50 | 0.0 | 0.0 | 0.06 | 0.43 | 0.05 | 88 | 1008.3 | |
| 20260505223020 | 50 | 0.0 | 0.0 | 0.05 | 0.41 | 0.03 | 88 | 1008.4 | |
| 20260505222026 | 50 | 0.0 | 0.0 | 0.04 | 0.40 | 0.02 | 88 | 1008.4 | |
| 20260505221019 | 50 | 0.0 | 0.0 | 0.03 | 0.39 | 0.01 | 88 | 1008.5 | |
| 20260505220019 | 50 | 0.0 | 0.0 | 0.05 | 0.39 | 0.01 | 88 | 1008.5 | |
| 20260505215017 | 50 | 0.0 | 0.0 | 0.05 | 0.38 | 0.38 | 88 | 1008.5 | |
| 20260505214026 | 50 | 0.0 | 0.0 | 0.06 | 0.37 | 0.37 | 88 | 1008.5 | |
| 20260505213025 | 50 | 0.0 | 0.0 | 0.06 | 0.36 | 0.36 | 88 | 1008.6 | |
| 20260505212018 | 50 | 0.0 | 0.0 | 0.07 | 0.36 | 0.36 | 88 | 1008.6 | |
| 20260505211021 | 50 | 0.0 | 0.0 | 0.08 | 0.35 | 0.35 | 88 | 1008.7 | |
| 20260505210020 | 50 | 0.0 | 0.0 | 0.07 | 0.34 | 0.34 | 88 | 1008.7 | |
| 20260505205025 | 50 | 0.0 | 0.0 | 0.07 | 0.33 | 0.33 | 88 | 1008.7 | |
| 20260505204017 | 50 | 0.0 | 0.0 | 0.07 | 0.31 | 0.31 | 88 | 1008.8 | |
| 20260505203037 | 50 | 0.0 | 0.0 | 0.07 | 0.31 | 0.31 | 88 | 1008.7 | |
| 20260505202016 | 50 | 0.0 | 0.0 | 0.07 | 0.29 | 0.29 | 89 | 1008.7 | |
| 20260505201021 | 50 | 0.0 | 0.0 | 0.06 | 0.28 | 0.28 | 89 | 1008.6 | |
| 20260505200018 | 50 | 0.0 | 0.0 | 0.06 | 0.27 | 0.27 | 89 | 1008.6 | |
| 20260505195043 | 51 | 0.0 | 0.0 | 0.06 | 0.26 | 0.26 | 89 | 1008.5 |